Weather History for KPOF - April, 2014

Change the Weather History Date:

Wednesday, April 23, 2014

  Actual Average Record
Temperature  
Mean Temperature 58 °F -  
Max Temperature 72 °F 72 °F 89 °F (1965)
Min Temperature 45 °F 50 °F 33 °F (1927)
Degree Days  
Heating Degree Days 7    
Growing Degree Days 8 (Base 50)    
Moisture  
Dew Point 40 °F    
Average Humidity 53    
Maximum Humidity 80    
Minimum Humidity 30    
Precipitation  
Precipitation 0.00 in - - ()
Sea Level Pressure  
Sea Level Pressure 30.00 in    
Wind  
Wind Speed 4 mph (ENE)    
Max Wind Speed 9 mph    
Max Gust Speed -    
Visibility 10 miles    
Events      
Averages and records for this station are not official NWS values.
T = Trace of Precipitation, MM = Missing Value Source: NWS Daily Summary

Daily Weather History Graph

Daily Weather History Graph

Search for Another Location

Airport or City:

Trip Planner

Search our weather history database for the weather conditions in past years. The results will help you decide how hot, cold, wet, or windy it might be!

Date:

Astronomy

Apr. 23, 2014 Rise Set
Actual Time 6:16 AM CDT 7:42 PM CDT
Civil Twilight 5:49 AM CDT 8:10 PM CDT
Nautical Twilight 5:17 AM CDT 8:42 PM CDT
Astronomical Twilight 4:42 AM CDT 9:17 PM CDT
Moon 2:39 AM CDT (4/23) 2:00 PM CDT (4/23)
Length of Visible Light 14h 20m
Length of Day
13h 26m
Waning Crescent, 34% of the Moon is Illuminated
Apr 23
Waning Crescent
Apr 29
New
May 6
First Quarter
May 14
Full
May 21
Last Quarter

Hourly Weather History & Observations

Time (CDT) Temp. Windchill Dew Point Humidity Pressure Visibility Wind Dir Wind Speed Gust Speed Precip Events Conditions
12:53 AM 51.1 °F - 43.0 °F 74% 29.99 in 10.0 mi Calm Calm - N/A   Clear
1:53 AM 50.0 °F - 43.0 °F 77% 30.00 in 10.0 mi Calm Calm - N/A   Clear
2:53 AM 48.0 °F - 41.0 °F 77% 30.00 in 10.0 mi Calm Calm - N/A   Clear
3:53 AM 46.9 °F - 41.0 °F 80% 30.01 in 10.0 mi NNW 3.5 mph - N/A   Clear
4:53 AM 46.0 °F 44.8 °F 39.9 °F 79% 30.03 in 10.0 mi WNW 3.5 mph - N/A   Clear
5:53 AM 45.0 °F - 39.0 °F 80% 30.03 in 10.0 mi Calm Calm - N/A   Clear
6:53 AM 45.0 °F 43.5 °F 39.0 °F 80% 30.05 in 10.0 mi North 3.5 mph - N/A   Clear
7:53 AM 53.1 °F - 39.9 °F 61% 30.07 in 10.0 mi NNE 6.9 mph - N/A   Clear
8:53 AM 57.9 °F - 39.9 °F 51% 30.07 in 10.0 mi ENE 6.9 mph - N/A   Clear
9:53 AM 63.0 °F - 37.9 °F 40% 30.08 in 10.0 mi East 6.9 mph - N/A   Clear
10:53 AM 64.9 °F - 37.0 °F 36% 30.08 in 10.0 mi ESE 9.2 mph - N/A   Clear
12:53 PM 68.0 °F - 37.9 °F 33% 30.04 in 10.0 mi ENE 6.9 mph - N/A   Clear
1:53 PM 70.0 °F - 39.0 °F 32% 30.02 in 10.0 mi SE 8.1 mph - N/A   Clear
2:53 PM 71.1 °F - 37.9 °F 30% 30.00 in 10.0 mi ESE 8.1 mph - N/A   Clear
3:53 PM 71.1 °F - 37.9 °F 30% 29.97 in 10.0 mi East 6.9 mph - N/A   Clear
4:53 PM 71.1 °F - 39.0 °F 31% 29.96 in 10.0 mi East 9.2 mph - N/A   Clear
5:53 PM 70.0 °F - 37.9 °F 31% 29.96 in 10.0 mi ESE 6.9 mph - N/A   Clear
6:53 PM 68.0 °F - 39.9 °F 36% 29.96 in 10.0 mi ENE 5.8 mph - N/A   Clear
7:53 PM 64.0 °F - 39.9 °F 41% 29.96 in 10.0 mi East 4.6 mph - N/A   Clear
8:53 PM 63.0 °F - 37.9 °F 40% 29.95 in 10.0 mi East 5.8 mph - N/A   Clear
9:53 PM 59.0 °F - 41.0 °F 51% 29.96 in 10.0 mi ENE 5.8 mph - N/A   Clear
10:53 PM 57.9 °F - 39.9 °F 51% 29.95 in 10.0 mi ENE 3.5 mph - N/A   Clear
11:53 PM 52.0 °F - 44.1 °F 74% 29.94 in 10.0 mi NE 3.5 mph - N/A   Clear